This is the latest recevied weather packets stored in our database for station/object K6TTR. If no packets are shown the sender has not sent any weather packets the latest 10 day(s).
| Time | Temp. | Humidity | Pressure | Rain* | Wind** | Luminosity | Snow |
|---|---|---|---|---|---|---|---|
| 1777656215 | 16.67° C | 34% | 1019.5 hPa | 0 mm | - | 100 W/m² | - |
| 1777655919 | 16.67° C | 34% | 1019.5 hPa | 0 mm | - | 90 W/m² | - |
| 1777654713 | 16.11° C | 36% | 1019.6 hPa | 0 mm | - | 84 W/m² | - |
| 1777653823 | 15.56° C | 43% | 1019.7 hPa | 0 mm | - | 167 W/m² | - |
| 1777653527 | 15° C | 42% | 1019.6 hPa | 0 mm | - | 102 W/m² | - |
| 1777653212 | 15° C | 45% | 1019.9 hPa | 0 mm | - | 573 W/m² | - |
| 1777652916 | 14.44° C | 45% | 1019.9 hPa | 0 mm | - | 258 W/m² | - |
| 1777652619 | 13.89° C | 46% | 1019.9 hPa | 0 mm | - | 171 W/m² | - |
| 1777652322 | 13.33° C | 46% | 1020 hPa | 0 mm | - | 116 W/m² | - |
| 1777652026 | 12.78° C | 46% | 1020 hPa | 0 mm | - | 98 W/m² | - |
| 1777651729 | 12.78° C | 49% | 1020.1 hPa | 0 mm | - | 88 W/m² | - |
| 1777649925 | 9.44° C | 81% | 1020.1 hPa | 0 mm | - | 176 W/m² | - |
| 1777649628 | 8.89° C | 84% | 1020.1 hPa | 0 mm | - | 74 W/m² | - |
| 1777649329 | 8.33° C | 86% | 1020.1 hPa | 0 mm | - | 243 W/m² | - |
| 1777649030 | 7.78° C | 88% | 1020.2 hPa | 0 mm | - | 320 W/m² | - |
| 1777648714 | 7.22° C | 90% | 1020.1 hPa | 0 mm | - | 179 W/m² | - |
| 1777648417 | 6.67° C | 90% | 1020.1 hPa | 0 mm | - | 67 W/m² | - |
| 1777648117 | 6.11° C | 91% | 1020.1 hPa | 0 mm | - | 60 W/m² | - |
| 1777647820 | 6.11° C | 91% | 1020.2 hPa | 0 mm | - | 62 W/m² | - |
| 1777647523 | 5.56° C | 91% | 1020.1 hPa | 0 mm | - | 54 W/m² | - |
| 1777646931 | 4.44° C | 91% | 1020.2 hPa | 0 mm | - | 49 W/m² | - |
| 1777646316 | 3.89° C | 91% | 1020.2 hPa | 0 mm | - | 67 W/m² | - |
| 1777646020 | 3.33° C | 91% | 1020.1 hPa | 0 mm | - | 40 W/m² | - |
| 1777645725 | 3.33° C | 91% | 1020.2 hPa | 0 mm | - | 37 W/m² | - |
| 1777645414 | 3.33° C | 91% | 1020.1 hPa | 0 mm | - | 35 W/m² | - |
* Rain latest hour (hover to see other rain measurements)
** Current wind speed in m/s (hover to see current wind gust speed)